Main page
METAR-TAF:

METAR-TAF

Airports :

Pontoise – Cormeilles Aerodrome

Pontoise, France

latitude: 49-05-48N, longitude: 002-02-27E, elevation: 99 m

Current weather observation

The report was made 39 minutes ago, at 19:30 UTC
Wind 5 kt from the South, varying between South/Southeast and Southwest
Temperature 15°C
Humidity 77%
Pressure 1011 hPa
Visibility 10 km or more
no clouds below 1500 m and no cumulonimbus

METAR: LFPT 251930Z AUTO 19005KT 160V220 CAVOK 15/11 Q1011

Time: 22:09 (20:09 UTC)


TAF: missing

Weather observations and forecasts of more than 4000 airports (METAR and TAF reports).

The available stations are represented by yellow and red dots on the map.

Hover mouse over dot to see the name of the station.

Then click to see weather observations and forecasts.

To change the map : click on the green buttons with a black cross to zoom in, on the green button with a dash to zoom out, or on the green arrows for adjacent maps.


METAR-TAF: